Regional Weather Roundup
Issued by NWS

Home | Current Version | Previous Version | Graphics & Text | Print | Product List | Glossary On
Versions: 1 2 3 4 5 6 7 8 9 10 11 12 13 14 15 16 17 18 19 20 21 22 23 24 25 26 27 28 29 30 31 32 33 34 35 36 37 38 39 40 41 42 43 44 45 46 47 48 49 50
000
ASUS43 KLMK 310802
RWRKY
KENTUCKY REGIONAL WEATHER ROUNDUP
NATIONAL WEATHER SERVICE LOUISVILLE KY
400 AM EDT THU JUL 31 2014

NOTE "FAIR" INDICATES FEW OR NO CLOUDS BELOW 12,000 FEET
WITH NO SIGNIFICANT WEATHER AND/OR OBSTRUCTIONS TO VISIBILITY.

KYZ001>023-026-027-061>063-070>075-310900-
WESTERN AND SOUTH CENTRAL KENTUCKY

CITY           SKY/WX    TMP DP  RH WIND       PRES   REMARKS
PADUCAH        PTCLDY    63  60  90 CALM      30.07S
HENDERSON      PTCLDY    57  54  88 CALM      30.08R
OWENSBORO      PTCLDY    62  59  90 CALM      30.09S
HOPKINSVILLE   PTCLDY    61  57  87 CALM      30.09S
BOWLING GREEN  PTCLDY    61  57  87 CALM      30.10S
GLASGOW        PTCLDY    59  59 100 CALM      30.10S FOG
$$

KYZ024-025-028>034-038-045-046-053-310900-
NORTH CENTRAL KENTUCKY

CITY           SKY/WX    TMP DP  RH WIND       PRES   REMARKS
LOUISVILLE/SDF PTCLDY    69  60  73 CALM      30.07F
LOUISVILLE/LOU CLEAR     64  60  87 CALM      30.08F
FORT KNOX      PTCLDY    59  59  99 CALM      30.08S FOG
$$

KYZ035>037-039>044-047>052-055>060-089>105-310900-
NORTHEAST KENTUCKY

CITY           SKY/WX    TMP DP  RH WIND       PRES   REMARKS
LEXINGTON      PTCLDY    62  57  83 S3        30.09F
COVINGTON      CLOUDY    66  61  84 S3        30.07S
FRANKFORT      PTCLDY    59  57  93 CALM      30.08S
$$

KYZ054-064>069-076>088-106>120-310900-
SOUTHEAST KENTUCKY

CITY           SKY/WX    TMP DP  RH WIND       PRES   REMARKS
JACKSON        PTCLDY    60  58  92 CALM      30.11F
LONDON         PTCLDY    61  58  90 CALM      30.12S
SOMERSET       PTCLDY    59  59 100 CALM      30.12S FOG
MIDDLESBORO    MOCLDY    57  57  98 CALM      30.13F
MONTICELLO     MOSUNNY   57  57 100 CALM      30.12F FOG
$$




USA.gov is the U.S. government's official web portal to all federal, state and local government web resources and services.